This is the latest recevied weather packets stored in our database for station/object WP3OF-3. If no packets are shown the sender has not sent any weather packets the latest 10 day(s).
| Time | Temp. | Humidity | Pressure | Rain* | Wind** | Luminosity | Snow |
|---|---|---|---|---|---|---|---|
| 1777665587 | 26.67° C | 79% | 1016.1 hPa | 0 mm | - | - | - |
| 1777665284 | 27.22° C | 79% | 1015.9 hPa | 0 mm | - | - | - |
| 1777664979 | 27.22° C | 79% | 1016 hPa | 0 mm | - | - | - |
| 1777664675 | 27.78° C | 79% | 1016 hPa | 0 mm | - | - | - |
| 1777664371 | 27.78° C | 78% | 1015.9 hPa | 0 mm | - | - | - |
| 1777664070 | 27.22° C | 77% | 1016 hPa | 0 mm | - | - | - |
| 1777663767 | 27.78° C | 76% | 1016.1 hPa | 0 mm | - | - | - |
| 1777663464 | 27.78° C | 76% | 1016.3 hPa | 0 mm | - | - | - |
| 1777663161 | 27.78° C | 76% | 1016 hPa | 0 mm | - | - | - |
| 1777662858 | 27.78° C | 76% | 1016.1 hPa | 0 mm | - | - | - |
| 1777662555 | 27.78° C | 76% | 1015.9 hPa | 0 mm | - | - | - |
| 1777662251 | 27.78° C | 76% | 1015.9 hPa | 0 mm | - | - | - |
| 1777661946 | 27.78° C | 78% | 1016.1 hPa | 0 mm | - | - | - |
| 1777661643 | 27.22° C | 78% | 1016.3 hPa | 0 mm | - | - | - |
| 1777661339 | 27.22° C | 78% | 1016.2 hPa | 0 mm | - | - | - |
| 1777661035 | 27.22° C | 78% | 1016 hPa | 0 mm | - | - | - |
| 1777660730 | 27.22° C | 78% | 1016.5 hPa | 0 mm | - | - | - |
| 1777660428 | 27.78° C | 77% | 1016.5 hPa | 0 mm | - | - | - |
| 1777660124 | 28.33° C | 77% | 1016.1 hPa | 0 mm | - | - | - |
| 1777659821 | 28.89° C | 74% | 1016.5 hPa | 0 mm | - | - | - |
| 1777659518 | 28.89° C | 72% | 1016.3 hPa | 0 mm | - | - | - |
| 1777659215 | 28.89° C | 73% | 1016.6 hPa | 0 mm | - | - | - |
| 1777658912 | 28.89° C | 73% | 1016.6 hPa | 0 mm | - | - | - |
| 1777658608 | 28.89° C | 74% | 1016.5 hPa | 0 mm | - | - | - |
| 1777658306 | 29.44° C | 73% | 1016.6 hPa | 0 mm | - | - | - |
* Rain latest hour (hover to see other rain measurements)
** Current wind speed in m/s (hover to see current wind gust speed)